Terminal Aerodrome Forecast
Issued by NWS Raleigh/Durham, NC

Home | Current Version | Previous Version | Text Only | Print | Product List | Glossary On
Versions: 1 2 3 4 5 6 7 8 9 10 11 12 13 14 15 16 17 18 19 20 21 22 23 24 25 26 27 28 29 30 31 32 33 34 35 36 37 38 39 40 41 42 43 44 45 46 47 48 49 50
000
FTUS42 KRAH 011738
TAFGSO
TAF
KGSO 011738Z 0118/0218 VRB05KT P6SM SCT015
      TEMPO 0118/0120 BKN015
     FM012000 00000KT P6SM SCT025
      TEMPO 0208/0212 3SM BR SCT002=

USA.gov is the U.S. government's official web portal to all federal, state and local government web resources and services.